Погода в Панькове

Россия / Тверская область     56°34′49″N   34°52′44″E
темп.,
°C
ветер,
м/с
пор.,
м/с
влажн.,
%
обл.,
%
осадки,
мм/ч
давл.,
гПа
погр.,
м
24 июля, сб
сб2400:00+14сз276999 0.0 1010185
03:00+12сз3680100 0.1 1012160
06:00+13ссз3768100 0.0 1013396
09:00+15ссз365716 0.0 1014732
12:00+20с453552 0.0 10142399
15:00+21ссв343159 0.0 10142567
18:00+19з2444100 0.0 1015631
21:00+15с375698 0.0 1017212
25 июля, вс
вс2500:00+13сз226699 0.0 101821
03:00+14зсз2259100 0.0 101947
06:00+14з2261100 0.0 102040
09:00+19ююз11495 0.0 1020554
12:00+22зюз123899 0.0 10202349
15:00+22юв233992 0.0 10211463
18:00+22ююв324443 0.0 1021846
21:00+18ю2463100 0.0 102183
26 июля, пн
пн2600:00+17зюз225993 0.0 102237
03:00+17юз3559100 0.0 1023113
06:00+16юз2262100 0.0 102353
09:00+19юз2361100 0.0 1023184
12:00+22ююз235035 0.0 1024544
15:00+26ююз2336100 0.0 10222170
18:00+21з115599 0.0 102211
21:00+20юз115292 0.0 102211
27 июля, вт
вт2700:00+17ююз226971 0.0 102316
03:00+17зюз227115 0.0 102340
06:00+16зюз238014 0.0 102357
09:00+23ююз22567 0.0 1023470
12:00+27ююз333928 0.0 10221991
15:00+26юз2346100 0.0 1021971
18:00+25зсз235097 0.1 1020928
21:00+19ююв227556 0.3 102027
28 июля, ср
ср2800:00+19ю237590 0.0 102060
03:00+17юз257819 0.0 1019106
06:00+17юз27802 0.0 1018144
09:00+24юз475485 0.0 1016564
12:00+28ююз563927 0.0 10152491
15:00+28юз5639100 0.0 10132464
18:00+25юз4948100 0.0 1012987
21:00+20з597764 0.0 1011362